Location: Asheville, NC
(35.6000°N, 82.5500°W)
Time: 17:03:44
(UTC-04:00)

CUBEBUG 2 - Pass Details

Date: 15 March 2018
Orbit: 587 x 699 km, 97.6° (Epoch: 17 June)

Event Time Altitude Azimuth Distance (km) Brightness Sun altitude
Rises 21:02:12 0° 210° (SSW) 3,006 ? -17.9°
Reaches altitude 10° 21:05:28 10° 234° (SW) 2,075 ? -18.5°
Maximum altitude 21:07:52 14° 267° (W) 1,794 ? -19.0°
Drops below altitude 10° 21:10:15 10° 299° (WNW) 2,046 ? -19.5°
Sets 21:13:27 0° 325° (NW) 2,934 ? -20.1°
